OK3MS-5 Weather Reports


time (UTC)temp
C
wind
direction
speed
KPH
gust
KPH
rain 1hr
cm
rain 24hr
cm
rain mn
cm
humidity
%
barometer
mb
20260505125002 23 115 3.2 9.7 0.00 0.00 0.00 40 1002.7
20260505124503 23 119 6.4 14.5 0.00 0.00 0.00 39 1002.8
20260505124005 23 18 4.8 12.9 0.00 0.00 0.00 40 1002.8
20260505123503 23 122 3.2 12.9 0.00 0.00 0.00 38 1002.9
20260505123002 23 59 0.0 4.8 0.00 0.00 0.00 41 1002.9
20260505122503 23 59 6.4 8.0 0.00 0.00 0.00 41 1002.8
20260505122007 23 18 1.6 3.2 0.00 0.00 0.00 41 1003.0
20260505121503 23 51 0.0 6.4 0.00 0.00 0.00 40 1002.9
20260505121009 23 20 0.0 1.6 0.00 0.00 0.00 40 1002.9
20260505120505 24 20 0.0 3.2 0.00 0.00 0.00 39 1002.8
20260505120003 24 20 0.0 1.6 0.00 0.00 0.00 37 1002.7
20260505115503 24 20 0.0 3.2 0.00 0.00 0.00 38 1002.9
20260505115003 24 20 0.0 3.2 0.00 0.00 0.00 37 1002.8
20260505114504 24 21 0.0 4.8 0.00 0.00 0.00 36 1002.9
20260505114004 24 56 3.2 3.2 0.00 0.00 0.00 36 1002.8
20260505113503 24 166 0.0 8.0 0.00 0.00 0.00 35 1002.8
20260505113003 25 166 8.0 9.7 0.00 0.00 0.00 34 1002.9
20260505112503 25 174 1.6 4.8 0.00 0.00 0.00 33 1002.8
20260505112007 25 182 8.0 9.7 0.00 0.00 0.00 32 1002.7
20260505111507 26 186 3.2 3.2 0.00 0.00 0.00 32 1002.6
20260505111002 26 166 1.6 9.7 0.00 0.00 0.00 33 1002.8
20260505110506 25 222 3.2 8.0 0.00 0.00 0.00 32 1002.9
20260505101514 25 258 0.0 9.7 0.00 0.00 0.00 37 1003.6
20260505101004 24 197 0.0 3.2 0.00 0.00 0.00 36 1003.8
20260505100504 23 198 3.2 8.0 0.00 0.00 0.00 38 1003.9
20260505100003 24 198 0.0 9.7 0.00 0.00 0.00 37 1003.8
20260505095507 24 179 4.8 6.4 0.00 0.00 0.00 37 1003.9
20260505095004 24 179 3.2 8.0 0.00 0.00 0.00 37 1003.9
20260505094508 23 216 1.6 6.4 0.00 0.00 0.00 37 1004.1
20260505094003 23 248 0.0 4.8 0.00 0.00 0.00 40 1004.3
20260505093508 23 255 0.0 8.0 0.00 0.00 0.00 38 1004.4
20260505093004 22 254 1.6 6.4 0.00 0.00 0.00 39 1004.4
20260505092504 23 180 1.6 3.2 0.00 0.00 0.00 39 1004.4
20260505092004 23 180 4.8 4.8 0.00 0.00 0.00 39 1004.4
20260505091504 22 180 0.0 6.4 0.00 0.00 0.00 39 1004.5
20260505091004 22 180 1.6 3.2 0.00 0.00 0.00 41 1004.6
20260505090507 22 180 1.6 3.2 0.00 0.00 0.00 39 1004.7
20260505090005 22 180 0.0 4.8 0.00 0.00 0.00 41 1004.8
20260505085503 22 180 1.6 6.4 0.00 0.00 0.00 40 1004.8
20260505085004 22 146 0.0 8.0 0.00 0.00 0.00 39 1004.8
20260505084503 22 144 0.0 1.6 0.00 0.00 0.00 40 1004.8
20260505084004 22 144 3.2 4.8 0.00 0.00 0.00 42 1005.0
20260505083506 22 144 0.0 9.7 0.00 0.00 0.00 41 1005.0
20260505083002 21 144 0.0 6.4 0.00 0.00 0.00 43 1005.1
20260505082506 21 56 0.0 4.8 0.00 0.00 0.00 43 1005.3
20260505082002 22 56 0.0 0.0 0.00 0.00 0.00 44 1005.2
20260505081504 21 56 0.0 1.6 0.00 0.00 0.00 42 1005.4
20260505081003 20 56 0.0 8.0 0.00 0.00 0.00 43 1005.4
20260505080504 20 56 0.0 0.0 0.00 0.00 0.00 43 1005.6
20260505080002 20 56 0.0 3.2 0.00 0.00 0.00 44 1005.6
20260505075503 20 56 0.0 0.0 0.00 0.00 0.00 45 1005.7
20260505075002 19 56 0.0 1.6 0.00 0.00 0.00 47 1005.9
20260505074503 18 56 1.6 1.6 0.00 0.00 0.00 48 1006.1
20260505074002 18 56 0.0 3.2 0.00 0.00 0.00 48 1006.3
20260505073504 18 56 3.2 3.2 0.00 0.00 0.00 49 1006.3
20260505073003 18 56 1.6 3.2 0.00 0.00 0.00 49 1006.3
20260505072505 18 54 0.0 3.2 0.00 0.00 0.00 50 1006.3
20260505072002 17 54 0.0 3.2 0.00 0.00 0.00 51 1006.4
20260505071504 17 54 0.0 4.8 0.00 0.00 0.00 53 1006.6
20260505071004 17 54 0.0 4.8 0.00 0.00 0.00 50 1006.7
20260505070502 17 54 0.0 1.6 0.00 0.00 0.00 53 1006.7
20260505070004 16 54 0.0 4.8 0.00 0.00 0.00 54 1006.9
20260505065505 16 54 0.0 1.6 0.00 0.00 0.00 53 1007.0
20260505065003 16 54 1.6 3.2 0.00 0.00 0.00 56 1007.0
20260505064504 17 54 0.0 1.6 0.00 0.00 0.00 55 1007.0
20260505064005 16 54 0.0 1.6 0.00 0.00 0.00 54 1007.0
20260505063503 16 54 0.0 1.6 0.00 0.00 0.00 54 1007.1
20260505063003 16 54 0.0 3.2 0.00 0.00 0.00 54 1007.1
20260505062503 16 54 0.0 3.2 0.00 0.00 0.00 54 1007.2
20260505062002 16 54 0.0 3.2 0.00 0.00 0.00 55 1007.2
20260505061506 16 54 0.0 3.2 0.00 0.00 0.00 54 1007.3
20260505061004 16 54 0.0 0.0 0.00 0.00 0.00 56 1007.3
20260505060503 16 54 0.0 0.0 0.00 0.00 0.00 57 1007.4
20260505060004 16 54 0.0 0.0 0.00 0.00 0.00 58 1007.3
20260505055502 16 54 0.0 0.0 0.00 0.00 0.00 58 1007.5
20260505055002 16 54 0.0 0.0 0.00 0.00 0.00 57 1007.3
20260505054506 16 54 0.0 0.0 0.00 0.00 0.00 55 1007.4
20260505054004 15 54 0.0 0.0 0.00 0.00 0.00 58 1007.5
20260505053503 15 54 0.0 0.0 0.00 0.00 0.00 59 1007.7
20260505053003 13 54 0.0 0.0 0.00 0.00 0.00 62 1007.9
20260505052505 13 54 0.0 0.0 0.00 0.00 0.00 69 1008.1
20260505052002 12 54 0.0 0.0 0.00 0.00 0.00 70 1008.1
20260505051503 11 54 0.0 0.0 0.00 0.00 0.00 74 1008.3
20260505051003 11 54 0.0 0.0 0.00 0.00 0.00 75 1008.5
20260505050505 11 54 0.0 0.0 0.00 0.00 0.00 75 1008.6
20260505041503 9 54 0.0 0.0 0.00 0.00 0.00 79 1009.2
20260505041008 9 54 0.0 0.0 0.00 0.00 0.00 79 1009.1
20260505040503 9 54 0.0 0.0 0.00 0.00 0.00 78 1009.0
20260505040003 9 54 0.0 0.0 0.00 0.00 0.00 78 1009.2
20260505035510 9 54 0.0 0.0 0.00 0.00 0.00 79 1009.2
20260505035002 9 54 0.0 0.0 0.00 0.00 0.00 81 1009.1
20260505034504 9 54 0.0 0.0 0.00 0.00 0.00 79 1009.1
20260505034003 9 54 0.0 0.0 0.00 0.00 0.00 79 1009.0
20260505033504 10 54 0.0 0.0 0.00 0.00 0.00 80 1009.1
20260505033002 10 54 0.0 0.0 0.00 0.00 0.00 75 1008.9
20260505032503 10 54 0.0 0.0 0.00 0.00 0.00 75 1009.0
20260505032004 10 54 0.0 0.0 0.00 0.00 0.00 75 1009.1
20260505031503 10 54 0.0 0.0 0.00 0.00 0.00 75 1009.0
20260505031003 10 54 0.0 0.0 0.00 0.00 0.00 74 1008.8
20260505030004 11 54 0.0 0.0 0.00 0.00 0.00 72 1008.8
20260505025508 11 54 0.0 0.0 0.00 0.00 0.00 71 1008.7
20260505025004 11 54 0.0 0.0 0.00 0.00 0.00 69 1008.6
20260505024507 11 54 0.0 0.0 0.00 0.00 0.00 68 1008.7
20260505024004 11 54 0.0 1.6 0.00 0.00 0.00 69 1008.7
20260505023503 11 54 0.0 0.0 0.00 0.00 0.00 69 1008.6
20260505023006 12 54 0.0 1.6 0.00 0.00 0.00 66 1008.6
20260505022502 12 54 0.0 0.0 0.00 0.00 0.00 67 1008.7
20260505022007 12 54 0.0 3.2 0.00 0.00 0.00 63 1008.5
20260505021504 12 54 0.0 3.2 0.00 0.00 0.00 64 1008.7
20260505021009 12 60 0.0 0.0 0.00 0.00 0.00 67 1008.7
20260505020506 12 60 0.0 0.0 0.00 0.00 0.00 63 1008.7
20260505020004 11 60 0.0 0.0 0.00 0.00 0.00 67 1008.7
20260505015508 12 60 0.0 0.0 0.00 0.00 0.00 65 1008.4
20260505015003 12 60 0.0 0.0 0.00 0.00 0.00 61 1008.2
20260505014509 12 60 0.0 0.0 0.00 0.00 0.00 61 1008.3
20260505014002 13 60 0.0 0.0 0.00 0.00 0.00 59 1008.4
20260505013509 13 60 0.0 0.0 0.00 0.00 0.00 60 1008.4
20260505013004 13 60 0.0 0.0 0.00 0.00 0.00 60 1008.4
20260505012503 13 60 0.0 1.6 0.00 0.00 0.00 60 1008.4
20260505012003 13 60 0.0 3.2 0.00 0.00 0.00 59 1008.4
20260505011504 13 60 0.0 1.6 0.00 0.00 0.00 58 1008.6
20260505011003 13 60 0.0 8.0 0.00 0.00 0.00 58 1008.6
20260505010503 13 78 3.2 6.4 0.00 0.00 0.00 58 1008.6
20260505010005 13 78 0.0 4.8 0.00 0.00 0.00 59 1008.8
20260505005504 13 78 0.0 3.2 0.00 0.00 0.00 58 1008.7
20260505005005 13 78 0.0 1.6 0.00 0.00 0.00 59 1008.7
20260505004504 13 78 0.0 3.2 0.00 0.00 0.00 58 1008.7
20260505004007 13 78 1.6 3.2 0.00 0.00 0.00 57 1008.8
20260505003503 13 78 0.0 1.6 0.00 0.00 0.00 58 1009.0
20260505003007 13 81 0.0 0.0 0.00 0.00 0.00 59 1009.0
20260505002504 13 81 0.0 0.0 0.00 0.00 0.00 60 1009.1
20260505002006 13 78 0.0 0.0 0.00 0.00 0.00 61 1009.2
20260505001503 13 78 0.0 0.0 0.00 0.00 0.00 64 1009.3
20260505001003 13 78 0.0 0.0 0.00 0.00 0.00 63 1009.3
20260505000511 14 81 0.0 0.0 0.00 0.00 0.00 58 1009.2
20260505000003 13 78 0.0 0.0 0.00 0.00 0.00 58 1009.4
20260504235510 13 78 0.0 0.0 0.00 0.00 0.00 57 1009.4
20260504235004 13 78 0.0 0.0 0.00 0.00 0.00 58 1009.5
20260504234504 13 78 0.0 0.0 0.00 0.00 0.00 60 1009.5
20260504234009 13 78 0.0 0.0 0.00 0.00 0.00 59 1009.6
20260504233503 14 78 0.0 0.0 0.00 0.00 0.00 58 1009.6
20260504233003 14 78 0.0 0.0 0.00 0.00 0.00 59 1009.6
20260504232508 14 81 0.0 0.0 0.00 0.00 0.00 57 1009.7
20260504232004 14 81 0.0 0.0 0.00 0.00 0.00 60 1009.7
20260504231508 15 81 0.0 0.0 0.00 0.00 0.00 60 1009.6
20260504231002 15 81 0.0 0.0 0.00 0.00 0.00 59 1009.6
20260504230504 15 81 0.0 3.2 0.00 0.00 0.00 57 1009.5
20260504230003 15 80 3.2 3.2 0.00 0.00 0.00 56 1009.6
20260504225502 15 78 3.2 3.2 0.00 0.00 0.00 56 1009.7
20260504225004 15 80 0.0 1.6 0.00 0.00 0.00 58 1009.8
20260504224502 15 80 1.6 1.6 0.00 0.00 0.00 61 1010.0
20260504224002 15 81 1.6 1.6 0.00 0.00 0.00 60 1009.9
20260504223502 15 81 0.0 0.0 0.00 0.00 0.00 61 1010.0
20260504223006 15 81 0.0 0.0 0.00 0.00 0.00 63 1010.1
20260504222508 15 81 0.0 0.0 0.00 0.00 0.00 60 1009.9
20260504222004 15 81 0.0 3.2 0.00 0.00 0.00 56 1009.7
20260504221511 15 98 0.0 0.0 0.00 0.00 0.00 57 1009.7
20260504221006 15 98 0.0 0.0 0.00 0.00 0.00 59 1009.9
20260504220504 16 98 0.0 0.0 0.00 0.00 0.00 54 1010.0
20260504220011 16 98 0.0 0.0 0.00 0.00 0.00 57 1010.1
20260504215507 16 98 0.0 0.0 0.00 0.00 0.00 54 1009.9
20260504215003 16 98 0.0 0.0 0.00 0.00 0.00 51 1009.8
20260504214509 17 98 0.0 0.0 0.00 0.00 0.00 49 1009.5
20260504214002 17 98 0.0 1.6 0.00 0.00 0.00 45 1009.5
20260504213503 17 98 0.0 0.0 0.00 0.00 0.00 46 1009.5
20260504213008 17 98 0.0 0.0 0.00 0.00 0.00 46 1009.5
20260504212505 17 98 0.0 1.6 0.00 0.00 0.00 46 1009.5
20260504212003 17 98 0.0 0.0 0.00 0.00 0.00 46 1009.5
20260504211509 18 98 0.0 1.6 0.00 0.00 0.00 45 1009.5
20260504211002 18 98 0.0 3.2 0.00 0.00 0.00 42 1009.5
20260504210506 18 168 1.6 14.5 0.00 0.00 0.00 42 1009.4
20260504210008 18 90 0.0 1.6 0.00 0.00 0.00 44 1009.5
20260504205503 18 90 0.0 4.8 0.00 0.00 0.00 43 1009.5
20260504205010 17 75 1.6 1.6 0.00 0.00 0.00 44 1009.6
20260504204505 17 75 1.6 1.6 0.00 0.00 0.00 45 1009.5
20260504204004 17 75 0.0 0.0 0.00 0.00 0.00 45 1009.6
20260504203509 17 75 0.0 0.0 0.00 0.00 0.00 47 1009.5
20260504203003 17 75 0.0 3.2 0.00 0.00 0.00 46 1009.4
20260504202506 17 75 0.0 0.0 0.00 0.00 0.00 48 1009.3
20260504202003 18 75 0.0 0.0 0.00 0.00 0.00 45 1009.3
20260504201510 18 75 0.0 1.6 0.00 0.00 0.00 44 1009.3
20260504201002 18 75 0.0 0.0 0.00 0.00 0.00 44 1009.3
20260504200506 18 75 0.0 1.6 0.00 0.00 0.00 45 1009.3
20260504200003 18 75 1.6 3.2 0.00 0.00 0.00 45 1009.4
20260504195508 18 76 0.0 3.2 0.00 0.00 0.00 46 1009.4
20260504195003 18 76 1.6 1.6 0.00 0.00 0.00 48 1009.4
20260504194510 18 76 1.6 1.6 0.00 0.00 0.00 48 1009.3
20260504194002 18 76 1.6 4.8 0.00 0.00 0.00 47 1009.4
20260504193509 18 78 1.6 1.6 0.00 0.00 0.00 46 1009.3
20260504193003 18 78 3.2 3.2 0.00 0.00 0.00 45 1009.2
20260504192505 19 78 0.0 1.6 0.00 0.00 0.00 45 1009.2
20260504192010 19 78 0.0 1.6 0.00 0.00 0.00 45 1009.0
20260504191502 19 78 4.8 6.4 0.00 0.00 0.00 45 1008.9
20260504191003 19 86 0.0 3.2 0.00 0.00 0.00 44 1008.9
20260504190504 20 110 1.6 1.6 0.00 0.00 0.00 43 1009.0
20260504190010 20 110 0.0 1.6 0.00 0.00 0.00 43 1009.1
20260504185504 20 110 0.0 4.8 0.00 0.00 0.00 43 1009.1
20260504184503 20 110 0.0 0.0 0.00 0.00 0.00 44 1008.9
20260504184004 20 110 1.6 3.2 0.00 0.00 0.00 44 1008.6
20260504183505 20 110 0.0 1.6 0.00 0.00 0.00 44 1008.6
20260504183003 21 110 0.0 1.6 0.00 0.00 0.00 44 1008.6
20260504182504 21 110 0.0 8.0 0.00 0.00 0.00 44 1008.5
20260504182003 21 110 1.6 4.8 0.00 0.00 0.00 44 1008.5
20260504181502 21 110 0.0 6.4 0.00 0.00 0.00 44 1008.5
20260504181003 21 110 0.0 16.1 0.00 0.00 0.00 44 1008.4
20260504180503 21 72 1.6 6.4 0.00 0.00 0.00 45 1008.2
20260504180003 21 72 1.6 4.8 0.00 0.00 0.00 45 1008.3
20260504175508 22 62 0.0 1.6 0.00 0.00 0.00 47 1008.2
20260504175003 22 62 0.0 3.2 0.00 0.00 0.00 46 1008.1
20260504174508 22 62 1.6 6.4 0.00 0.00 0.00 45 1008.1
20260504174002 22 49 3.2 3.2 0.00 0.00 0.00 45 1008.1
20260504173504 22 10 3.2 3.2 0.00 0.00 0.00 44 1008.0
20260504173006 22 10 0.0 1.6 0.00 0.00 0.00 45 1008.0
20260504172508 22 10 0.0 1.6 0.00 0.00 0.00 44 1008.1
20260504172004 22 10 0.0 1.6 0.00 0.00 0.00 43 1008.3
20260504171504 22 10 1.6 4.8 0.00 0.00 0.00 44 1008.2
20260504171004 22 10 0.0 3.2 0.00 0.00 0.00 44 1008.3
20260504170504 22 10 0.0 8.0 0.00 0.00 0.00 44 1008.3
20260504151004 23 36 0.0 9.7 0.00 0.00 0.00 40 1008.7
20260504150505 23 34 4.8 11.3 0.00 0.00 0.00 40 1008.6
20260504141004 25 12 0.0 3.2 0.00 0.00 0.00 31 1008.6
20260504140506 25 12 3.2 14.5 0.00 0.00 0.00 33 1008.7